FENGYUN 1C DEB

Satellite information

Favourite Embed

Satellite Type and Status

DEBRISIN ORBIT

Key statistics

Satellite FENGYUN 1C DEB at a glance.

Uptime

9715

Days in orbit

Revolutions

≈ 14.3

Per day

Orbit

SSO

Sun Synchronous Orbit

Inclination

98.9

Latest

Satellite identification and parameters

Extended collection of information and parameters for FENGYUN 1C DEB.

Object identification

Identified? True

Debris? True

Object name: FENGYUN 1C DEB

International designator: 1999-025HQ

Object number (NORAD): 29918

Object ID (CCSDS): 29918

Country: PEOPLES REPUBLIC OF CHINA (PRC)

Current information (Y/N): Y

RCS size: SMALL

Orbital parameters

Period: 100.447 minutes

Inclination: 98.8542 deg

SMA: 7157.881 km

Apoapsis: 788.965 km

Periapsis: 770.528 km

RAAN: 68.6013 deg

Eccentricy: 0.00128793

Argument of periapsis: 318.0951 deg

Mean anomaly: 111.9989 deg

Mean motion: 14.33593453 rev/day

Mean motion (dot): 0.00006585 rev/day2

B* drag term: 0.0023903587 1/REarth

Two-line elements (TLE)

Creation date: Dec. 12, 2025, 10:14 a.m.

Reference frame: TEME

Reference center: EARTH

Epoch: Dec. 12, 2025, 4:16 a.m. UTC

TLE line 0: 0 FENGYUN 1C DEB

TLE line 1: 1 29918U 99025HQ 25346.17779829 .00006585 00000-0 23904-2 0 9998

TLE line 2: 2 29918 98.8542 68.6013 0012879 318.0951 111.9989 14.33593453977860

Live tracking on map

Real-time ground track for satellite FENGYUN 1C DEB.

In-orbit conjunctions

A list of the most updated potential collisions computed for object FENGYUN 1C DEB.

Target Orbit TCA Probability of collision Miss distance Type
OV1-20/OV1-21 AKM LEO 2025-10-19 18:01:20 0.0008958161 102.0 (m) ROCKET BODY
CZ-2D R/B SSO 2025-10-08 12:05:14 0.0001903184 340.0 (m) ROCKET BODY
CZ-6A DEB LEO 2025-04-13 14:01:05 0.0001178565 181.0 (m) DEBRIS
SAPPHIRE LEO 2024-12-02 13:59:30 0.0001251045 209.0 (m) PAYLOAD

Associated space launch

Chinese polar orbiting meteorological satellite

FENGYUN 1C DEB was lifted into orbit during the mission ‘Long March 4B | Feng Yun 1C’, on board a Long March 4B space rocket.

The launch took place on May 10, 1999, 1:33 a.m. from Launch Complex 7.

For more information about the launch, click the button.

Launch to space Long March 4B | Feng Yun 1C
Long March 4B | Feng Yun 1C

Agency: N/A

Status: Launch Successful

Launch date: May 10, 1999, 1:33 a.m. UTC

Rocket: Long March 4B

Launch pad: Launch Complex 7

Location: Taiyuan Satellite Launch Center, People's Republic of China

...

Latest news about this satellite

There are no fresh news available about this satellite. Check back as we update our databases every day.


Newsletter sign-up

Weekly statistics, charts and insights to help you stay on top of the space industry.